Year,Month,Day,Hour,Minute,Value (Times are PST for temperature in C)
2012,09,19,00,00,11.90
2012,09,19,00,01,11.90
2012,09,19,00,02,11.90
2012,09,19,00,03,11.80
2012,09,19,00,04,11.80
2012,09,19,00,05,11.80
2012,09,19,00,06,11.80
2012,09,19,00,07,11.80
2012,09,19,00,08,11.80
2012,09,19,00,09,11.80
2012,09,19,00,10,11.70
2012,09,19,00,11,11.70
2012,09,19,00,12,11.70
2012,09,19,00,13,11.70
2012,09,19,00,14,11.70
2012,09,19,00,15,11.70
2012,09,19,00,16,11.70
2012,09,19,00,17,11.70
2012,09,19,00,18,11.70
2012,09,19,00,19,11.60
2012,09,19,00,20,11.60
2012,09,19,00,21,11.60
2012,09,19,00,22,11.60
2012,09,19,00,23,11.60
2012,09,19,00,24,11.60
2012,09,19,00,25,11.60
2012,09,19,00,26,11.60
2012,09,19,00,27,11.50
2012,09,19,00,28,11.50
2012,09,19,00,29,11.50
2012,09,19,00,30,11.50
2012,09,19,00,31,11.50
2012,09,19,00,32,11.50
2012,09,19,00,33,11.40
2012,09,19,00,34,11.40
2012,09,19,00,35,11.40
2012,09,19,00,36,11.40
2012,09,19,00,37,11.40
2012,09,19,00,38,11.40
2012,09,19,00,39,11.30
2012,09,19,00,40,11.30
2012,09,19,00,41,11.30
2012,09,19,00,42,11.30
2012,09,19,00,43,11.30
2012,09,19,00,44,11.30
2012,09,19,00,45,11.30
2012,09,19,00,46,11.30
2012,09,19,00,47,11.20
2012,09,19,00,48,11.20
2012,09,19,00,49,11.20
2012,09,19,00,50,11.20
2012,09,19,00,51,11.20
2012,09,19,00,52,11.20
2012,09,19,00,53,11.20
2012,09,19,00,54,11.20
2012,09,19,00,55,11.20
2012,09,19,00,56,11.20
2012,09,19,00,57,11.10
2012,09,19,00,58,11.10
2012,09,19,00,59,11.10
2012,09,19,01,00,11.10
2012,09,19,01,01,11.00
2012,09,19,01,02,11.00
2012,09,19,01,03,11.00
2012,09,19,01,04,11.00
2012,09,19,01,05,11.00
2012,09,19,01,06,11.00
2012,09,19,01,07,11.00
2012,09,19,01,08,11.00
2012,09,19,01,09,10.90
2012,09,19,01,10,10.90
2012,09,19,01,11,10.90
2012,09,19,01,12,10.90
2012,09,19,01,13,10.90
2012,09,19,01,14,10.90
2012,09,19,01,15,10.90
2012,09,19,01,16,10.90
2012,09,19,01,17,10.90
2012,09,19,01,18,10.90
2012,09,19,01,19,10.90
2012,09,19,01,20,10.80
2012,09,19,01,21,10.80
2012,09,19,01,22,10.80
2012,09,19,01,23,10.80
2012,09,19,01,24,10.80
2012,09,19,01,25,10.80
2012,09,19,01,26,10.80
2012,09,19,01,27,10.80
2012,09,19,01,28,10.80
2012,09,19,01,29,10.80
2012,09,19,01,30,10.80
2012,09,19,01,31,10.80
2012,09,19,01,32,10.70
2012,09,19,01,33,10.70
2012,09,19,01,34,10.70
2012,09,19,01,35,10.70
2012,09,19,01,36,10.70
2012,09,19,01,37,10.70
2012,09,19,01,38,10.70
2012,09,19,01,39,10.70
2012,09,19,01,40,10.70
2012,09,19,01,41,10.60
2012,09,19,01,42,10.60
2012,09,19,01,43,10.60
2012,09,19,01,44,10.60
2012,09,19,01,45,10.60
2012,09,19,01,46,10.60
2012,09,19,01,47,10.60
2012,09,19,01,48,10.50
2012,09,19,01,49,10.50
2012,09,19,01,50,10.50
2012,09,19,01,51,10.50
2012,09,19,01,52,10.50
2012,09,19,01,53,10.40
2012,09,19,01,54,10.40
2012,09,19,01,55,10.40
2012,09,19,01,56,10.40
2012,09,19,01,57,10.40
2012,09,19,01,58,10.40
2012,09,19,01,59,10.40
2012,09,19,02,00,10.40
2012,09,19,02,01,10.40
2012,09,19,02,02,10.30
2012,09,19,02,03,10.30
2012,09,19,02,04,10.30
2012,09,19,02,05,10.30
2012,09,19,02,06,10.30
2012,09,19,02,07,10.30
2012,09,19,02,08,10.30
2012,09,19,02,09,10.30
2012,09,19,02,10,10.30
2012,09,19,02,11,10.30
2012,09,19,02,12,10.30
2012,09,19,02,13,10.30
2012,09,19,02,14,10.30
2012,09,19,02,15,10.20
2012,09,19,02,16,10.20
2012,09,19,02,17,10.20
2012,09,19,02,18,10.20
2012,09,19,02,19,10.20
2012,09,19,02,20,10.20
2012,09,19,02,21,10.20
2012,09,19,02,22,10.20
2012,09,19,02,23,10.10
2012,09,19,02,24,10.10
2012,09,19,02,25,10.10
2012,09,19,02,26,10.10
2012,09,19,02,27,10.10
2012,09,19,02,28,10.00
2012,09,19,02,29,10.00
2012,09,19,02,30,10.00
2012,09,19,02,31,10.00
2012,09,19,02,32,10.00
2012,09,19,02,33,10.00
2012,09,19,02,34,9.90
2012,09,19,02,35,9.90
2012,09,19,02,36,9.90
2012,09,19,02,37,9.90
2012,09,19,02,38,9.90
2012,09,19,02,39,9.90
2012,09,19,02,40,9.90
2012,09,19,02,41,9.90
2012,09,19,02,42,9.90
2012,09,19,02,43,9.90
2012,09,19,02,44,9.90
2012,09,19,02,45,9.90
2012,09,19,02,46,9.90
2012,09,19,02,47,9.90
2012,09,19,02,48,9.80
2012,09,19,02,49,9.80
2012,09,19,02,50,9.80
2012,09,19,02,51,9.80
2012,09,19,02,52,9.80
2012,09,19,02,53,9.80
2012,09,19,02,54,9.80
2012,09,19,02,55,9.80
2012,09,19,02,56,9.80
2012,09,19,02,57,9.80
2012,09,19,02,58,9.70
2012,09,19,02,59,9.70
2012,09,19,03,00,9.70
2012,09,19,03,01,9.70
2012,09,19,03,02,9.70
2012,09,19,03,03,9.70
2012,09,19,03,04,9.70
2012,09,19,03,05,9.70
2012,09,19,03,06,9.70
2012,09,19,03,07,9.70
2012,09,19,03,08,9.70
2012,09,19,03,09,9.70
2012,09,19,03,10,9.60
2012,09,19,03,11,9.60
2012,09,19,03,12,9.60
2012,09,19,03,13,9.60
2012,09,19,03,14,9.60
2012,09,19,03,15,9.60
2012,09,19,03,16,9.60
2012,09,19,03,17,9.60
2012,09,19,03,18,9.60
2012,09,19,03,19,9.60
2012,09,19,03,20,9.60
2012,09,19,03,21,9.60
2012,09,19,03,22,9.50
2012,09,19,03,23,9.50
2012,09,19,03,24,9.50
2012,09,19,03,25,9.50
2012,09,19,03,26,9.50
2012,09,19,03,27,9.50
2012,09,19,03,28,9.40
2012,09,19,03,29,9.40
2012,09,19,03,30,9.40
2012,09,19,03,31,9.40
2012,09,19,03,32,9.40
2012,09,19,03,33,9.40
2012,09,19,03,34,9.40
2012,09,19,03,35,9.40
2012,09,19,03,36,9.40
2012,09,19,03,37,9.40
2012,09,19,03,38,9.40
2012,09,19,03,39,9.40
2012,09,19,03,40,9.40
2012,09,19,03,41,9.40
2012,09,19,03,42,9.30
2012,09,19,03,43,9.30
2012,09,19,03,44,9.30
2012,09,19,03,45,9.30
2012,09,19,03,46,9.30
2012,09,19,03,47,9.30
2012,09,19,03,48,9.30
2012,09,19,03,49,9.30
2012,09,19,03,50,9.20
2012,09,19,03,51,9.20
2012,09,19,03,52,9.20
2012,09,19,03,53,9.20
2012,09,19,03,54,9.20
2012,09,19,03,55,9.20
2012,09,19,03,56,9.20
2012,09,19,03,57,9.20
2012,09,19,03,58,9.20
2012,09,19,03,59,9.10
2012,09,19,04,00,9.10
2012,09,19,04,01,9.10
2012,09,19,04,02,9.10
2012,09,19,04,03,9.10
2012,09,19,04,04,9.10
2012,09,19,04,05,9.10
2012,09,19,04,06,9.10
2012,09,19,04,07,9.10
2012,09,19,04,08,9.10
2012,09,19,04,09,9.10
2012,09,19,04,10,9.10
2012,09,19,04,11,9.10
2012,09,19,04,12,9.10
2012,09,19,04,13,9.10
2012,09,19,04,14,9.10
2012,09,19,04,15,9.00
2012,09,19,04,16,9.00
2012,09,19,04,17,9.00
2012,09,19,04,18,9.00
2012,09,19,04,19,9.00
2012,09,19,04,20,9.00
2012,09,19,04,21,9.00
2012,09,19,04,22,9.00
2012,09,19,04,23,8.90
2012,09,19,04,24,8.90
2012,09,19,04,25,8.90
2012,09,19,04,26,8.90
2012,09,19,04,27,8.90
2012,09,19,04,28,8.90
2012,09,19,04,29,8.90
2012,09,19,04,30,8.90
2012,09,19,04,31,8.90
2012,09,19,04,32,8.90
2012,09,19,04,33,8.90
2012,09,19,04,34,8.90
2012,09,19,04,35,8.90
2012,09,19,04,36,8.80
2012,09,19,04,37,8.80
2012,09,19,04,38,8.80
2012,09,19,04,39,8.80
2012,09,19,04,40,8.80
2012,09,19,04,41,8.80
2012,09,19,04,42,8.80
2012,09,19,04,43,8.80
2012,09,19,04,44,8.80
2012,09,19,04,45,8.80
2012,09,19,04,46,8.80
2012,09,19,04,47,8.80
2012,09,19,04,48,8.80
2012,09,19,04,49,8.80
2012,09,19,04,50,8.70
2012,09,19,04,51,8.70
2012,09,19,04,52,8.70
2012,09,19,04,53,8.70
2012,09,19,04,54,8.70
2012,09,19,04,55,8.70
2012,09,19,04,56,8.70
2012,09,19,04,57,8.70
2012,09,19,04,58,8.70
2012,09,19,04,59,8.70
2012,09,19,05,00,8.70
2012,09,19,05,01,8.70
2012,09,19,05,02,8.70
2012,09,19,05,03,8.60
2012,09,19,05,04,8.60
2012,09,19,05,05,8.60
2012,09,19,05,06,8.60
2012,09,19,05,07,8.60
2012,09,19,05,08,8.60
2012,09,19,05,09,8.60
2012,09,19,05,10,8.60
2012,09,19,05,11,8.60
2012,09,19,05,12,8.60
2012,09,19,05,13,8.60
2012,09,19,05,14,8.60
2012,09,19,05,15,8.60
2012,09,19,05,16,8.60
2012,09,19,05,17,8.50
2012,09,19,05,18,8.50
2012,09,19,05,19,8.50
2012,09,19,05,20,8.50
2012,09,19,05,21,8.50
2012,09,19,05,22,8.50
2012,09,19,05,23,8.50
2012,09,19,05,24,8.40
2012,09,19,05,25,8.40
2012,09,19,05,26,8.40
2012,09,19,05,27,8.40
2012,09,19,05,28,8.40
2012,09,19,05,29,8.40
2012,09,19,05,30,8.40
2012,09,19,05,31,8.40
2012,09,19,05,32,8.40
2012,09,19,05,33,8.40
2012,09,19,05,34,8.40
2012,09,19,05,35,8.30
2012,09,19,05,36,8.30
2012,09,19,05,37,8.30
2012,09,19,05,38,8.30
2012,09,19,05,39,8.30
2012,09,19,05,40,8.30
2012,09,19,05,41,8.30
2012,09,19,05,42,8.30
2012,09,19,05,43,8.30
2012,09,19,05,44,8.30
2012,09,19,05,45,8.30
2012,09,19,05,46,8.30
2012,09,19,05,47,8.30
2012,09,19,05,48,8.30
2012,09,19,05,49,8.30
2012,09,19,05,50,8.30
2012,09,19,05,51,8.30
2012,09,19,05,52,8.30
2012,09,19,05,53,8.20
2012,09,19,05,54,8.20
2012,09,19,05,55,8.20
2012,09,19,05,56,8.20
2012,09,19,05,57,8.20
2012,09,19,05,58,8.20
2012,09,19,05,59,8.20
2012,09,19,06,00,8.20
2012,09,19,06,01,8.10
2012,09,19,06,02,8.10
2012,09,19,06,03,8.10
2012,09,19,06,04,8.10
2012,09,19,06,05,8.10
2012,09,19,06,06,8.10
2012,09,19,06,07,8.10
2012,09,19,06,08,8.10
2012,09,19,06,09,8.10
2012,09,19,06,10,8.10
2012,09,19,06,11,8.10
2012,09,19,06,12,8.00
2012,09,19,06,13,8.00
2012,09,19,06,14,8.00
2012,09,19,06,15,8.00
2012,09,19,06,16,8.00
2012,09,19,06,17,7.90
2012,09,19,06,18,7.90
2012,09,19,06,19,7.90
2012,09,19,06,20,7.90
2012,09,19,06,21,7.90
2012,09,19,06,22,7.90
2012,09,19,06,23,7.90
2012,09,19,06,24,7.90
2012,09,19,06,25,7.90
2012,09,19,06,26,7.90
2012,09,19,06,27,7.90
2012,09,19,06,28,7.90
2012,09,19,06,29,7.90
2012,09,19,06,30,7.80
2012,09,19,06,31,7.80
2012,09,19,06,32,7.80
2012,09,19,06,33,7.80
2012,09,19,06,34,7.80
2012,09,19,06,35,7.80
2012,09,19,06,36,7.80
2012,09,19,06,37,7.80
2012,09,19,06,38,7.80
2012,09,19,06,39,7.80
2012,09,19,06,40,7.80
2012,09,19,06,41,7.80
2012,09,19,06,42,7.80
2012,09,19,06,43,7.80
2012,09,19,06,44,7.80
2012,09,19,06,45,7.80
2012,09,19,06,46,7.80
2012,09,19,06,47,7.80
2012,09,19,06,48,7.80
2012,09,19,06,49,7.80
2012,09,19,06,50,7.80
2012,09,19,06,51,7.70
2012,09,19,06,52,7.70
2012,09,19,06,53,7.70
2012,09,19,06,54,7.70
2012,09,19,06,55,7.70
2012,09,19,06,56,7.70
2012,09,19,06,57,7.70
2012,09,19,06,58,7.70
2012,09,19,06,59,7.70
2012,09,19,07,00,7.70
2012,09,19,07,01,7.70
2012,09,19,07,02,7.70
2012,09,19,07,03,7.70
2012,09,19,07,04,7.70
2012,09,19,07,05,7.70
2012,09,19,07,06,7.70
2012,09,19,07,07,7.70
2012,09,19,07,08,7.70
2012,09,19,07,09,7.70
2012,09,19,07,10,7.70
2012,09,19,07,11,7.70
2012,09,19,07,12,7.70
2012,09,19,07,13,7.70
2012,09,19,07,14,7.60
2012,09,19,07,15,7.60
2012,09,19,07,16,7.60
2012,09,19,07,17,7.60
2012,09,19,07,18,7.60
2012,09,19,07,19,7.60
2012,09,19,07,20,7.60
2012,09,19,07,21,7.60
2012,09,19,07,22,7.60
2012,09,19,07,23,7.60
2012,09,19,07,24,7.60
2012,09,19,07,25,7.50
2012,09,19,07,26,7.50
2012,09,19,07,27,7.50
2012,09,19,07,28,7.50
2012,09,19,07,29,7.50
2012,09,19,07,30,7.50
2012,09,19,07,31,7.50
2012,09,19,07,32,7.50
2012,09,19,07,33,7.50
2012,09,19,07,34,7.50
2012,09,19,07,35,7.50
2012,09,19,07,36,7.50
2012,09,19,07,37,7.50
2012,09,19,07,38,7.50
2012,09,19,07,39,7.40
2012,09,19,07,40,7.40
2012,09,19,07,41,7.40
2012,09,19,07,42,7.40
2012,09,19,07,43,7.40
2012,09,19,07,44,7.40
2012,09,19,07,45,7.40
2012,09,19,07,46,7.40
2012,09,19,07,47,7.40
2012,09,19,07,48,7.40
2012,09,19,07,49,7.40
2012,09,19,07,50,7.40
2012,09,19,07,51,7.40
2012,09,19,07,52,7.40
2012,09,19,07,53,7.40
2012,09,19,07,54,7.40
2012,09,19,07,55,7.40
2012,09,19,07,56,7.40
2012,09,19,07,57,7.40
2012,09,19,07,58,7.40
2012,09,19,07,59,7.40
2012,09,19,08,00,7.40
2012,09,19,08,01,7.40
2012,09,19,08,02,7.40
2012,09,19,08,03,7.40
2012,09,19,08,04,7.40
2012,09,19,08,05,7.40
2012,09,19,08,06,7.40
2012,09,19,08,07,7.40
2012,09,19,08,08,7.40
2012,09,19,08,09,7.40
2012,09,19,08,10,7.40
2012,09,19,08,11,7.40
2012,09,19,08,12,7.40
2012,09,19,08,13,7.40
2012,09,19,08,14,7.40
2012,09,19,08,15,7.40
2012,09,19,08,16,7.40
2012,09,19,08,17,7.40
2012,09,19,08,18,7.50
2012,09,19,08,19,7.50
2012,09,19,08,20,7.60
2012,09,19,08,21,7.60
2012,09,19,08,22,7.70
2012,09,19,08,23,7.70
2012,09,19,08,24,7.80
2012,09,19,08,25,7.80
2012,09,19,08,26,7.90
2012,09,19,08,27,7.90
2012,09,19,08,28,8.00
2012,09,19,08,29,8.10
2012,09,19,08,30,8.10
2012,09,19,08,31,8.20
2012,09,19,08,32,8.30
2012,09,19,08,33,8.30
2012,09,19,08,34,8.40
2012,09,19,08,35,8.50
2012,09,19,08,36,8.60
2012,09,19,08,37,8.70
2012,09,19,08,38,8.80
2012,09,19,08,39,8.90
2012,09,19,08,40,9.00
2012,09,19,08,41,9.20
2012,09,19,08,42,9.20
2012,09,19,08,43,9.40
2012,09,19,08,44,9.50
2012,09,19,08,45,9.60
2012,09,19,08,46,9.70
2012,09,19,08,47,9.80
2012,09,19,08,48,9.90
2012,09,19,08,49,10.10
2012,09,19,08,50,10.20
2012,09,19,08,51,10.30
2012,09,19,08,52,10.50
2012,09,19,08,53,10.60
2012,09,19,08,54,10.70
2012,09,19,08,55,10.80
2012,09,19,08,56,11.00
2012,09,19,08,57,11.10
2012,09,19,08,58,11.20
2012,09,19,08,59,11.30
2012,09,19,09,00,11.40
2012,09,19,09,01,11.50
2012,09,19,09,02,11.50
2012,09,19,09,03,11.60
2012,09,19,09,04,11.70
2012,09,19,09,05,11.80
2012,09,19,09,06,11.80
2012,09,19,09,07,11.90
2012,09,19,09,08,11.90
2012,09,19,09,09,12.00
2012,09,19,09,10,12.10
2012,09,19,09,11,12.10
2012,09,19,09,12,12.20
2012,09,19,09,13,12.30
2012,09,19,09,14,12.30
2012,09,19,09,15,12.40
2012,09,19,09,16,12.50
2012,09,19,09,17,12.60
2012,09,19,09,18,12.60
2012,09,19,09,19,12.70
2012,09,19,09,20,12.80
2012,09,19,09,21,12.80
2012,09,19,09,22,12.90
2012,09,19,09,23,12.90
2012,09,19,09,24,13.00
2012,09,19,09,25,13.10
2012,09,19,09,26,13.10
2012,09,19,09,27,13.20
2012,09,19,09,28,13.30
2012,09,19,09,29,13.30
2012,09,19,09,30,13.40
2012,09,19,09,31,13.50
2012,09,19,09,32,13.60
2012,09,19,09,33,13.60
2012,09,19,09,34,13.70
2012,09,19,09,35,13.80
2012,09,19,09,36,13.90
2012,09,19,09,37,13.90
2012,09,19,09,38,14.00
2012,09,19,09,39,14.00
2012,09,19,09,40,14.10
2012,09,19,09,41,14.10
2012,09,19,09,42,14.10
2012,09,19,09,43,14.10
2012,09,19,09,44,14.20
2012,09,19,09,45,14.20
2012,09,19,09,46,14.20
2012,09,19,09,47,14.20
2012,09,19,09,48,14.10
2012,09,19,09,49,14.10
2012,09,19,09,50,14.10
2012,09,19,09,51,14.10
2012,09,19,09,52,14.10
2012,09,19,09,53,14.10
2012,09,19,09,54,14.10
2012,09,19,09,55,14.10
2012,09,19,09,56,14.10
2012,09,19,09,57,14.00
2012,09,19,09,58,14.00
2012,09,19,09,59,14.10
2012,09,19,10,00,14.10
2012,09,19,10,01,14.10
2012,09,19,10,02,14.10
2012,09,19,10,03,14.20
2012,09,19,10,04,14.20
2012,09,19,10,05,14.30
2012,09,19,10,06,14.40
2012,09,19,10,07,14.50
2012,09,19,10,08,14.60
2012,09,19,10,09,14.70
2012,09,19,10,10,14.80
2012,09,19,10,11,14.80
2012,09,19,10,12,14.80
2012,09,19,10,13,14.90
2012,09,19,10,14,14.90
2012,09,19,10,15,14.90
2012,09,19,10,16,14.90
2012,09,19,10,17,14.90
2012,09,19,10,18,15.00
2012,09,19,10,19,15.00
2012,09,19,10,20,15.10
2012,09,19,10,21,15.20
2012,09,19,10,22,15.30
2012,09,19,10,23,15.40
2012,09,19,10,24,15.50
2012,09,19,10,25,15.50
2012,09,19,10,26,15.60
2012,09,19,10,27,15.70
2012,09,19,10,28,15.80
2012,09,19,10,29,15.90
2012,09,19,10,30,16.00
2012,09,19,10,31,16.10
2012,09,19,10,32,16.20
2012,09,19,10,33,16.30
2012,09,19,10,34,16.30
2012,09,19,10,35,16.40
2012,09,19,10,36,16.50
2012,09,19,10,37,16.60
2012,09,19,10,38,16.70
2012,09,19,10,39,16.70
2012,09,19,10,40,16.80
2012,09,19,10,41,16.80
2012,09,19,10,42,16.90
2012,09,19,10,43,16.90
2012,09,19,10,44,16.90
2012,09,19,10,45,17.00
2012,09,19,10,46,17.00
2012,09,19,10,47,17.00
2012,09,19,10,48,17.00
2012,09,19,10,49,17.00
2012,09,19,10,50,17.10
2012,09,19,10,51,17.10
2012,09,19,10,52,17.20
2012,09,19,10,53,17.30
2012,09,19,10,54,17.30
2012,09,19,10,55,17.40
2012,09,19,10,56,17.50
2012,09,19,10,57,17.60
2012,09,19,10,58,17.70
2012,09,19,10,59,17.70
2012,09,19,11,00,17.80
2012,09,19,11,01,17.90
2012,09,19,11,02,18.00
2012,09,19,11,03,18.10
2012,09,19,11,04,18.10
2012,09,19,11,05,18.20
2012,09,19,11,06,18.20
2012,09,19,11,07,18.20
2012,09,19,11,08,18.20
2012,09,19,11,09,18.20
2012,09,19,11,10,18.20
2012,09,19,11,11,18.30
2012,09,19,11,12,18.30
2012,09,19,11,13,18.40
2012,09,19,11,14,18.50
2012,09,19,11,15,18.50
2012,09,19,11,16,18.60
2012,09,19,11,17,18.60
2012,09,19,11,18,18.70
2012,09,19,11,19,18.70
2012,09,19,11,20,18.80
2012,09,19,11,21,18.80
2012,09,19,11,22,18.70
2012,09,19,11,23,18.70
2012,09,19,11,24,18.70
2012,09,19,11,25,18.70
2012,09,19,11,26,18.70
2012,09,19,11,27,18.70
2012,09,19,11,28,18.70
2012,09,19,11,29,18.80
2012,09,19,11,30,18.80
2012,09,19,11,31,18.80
2012,09,19,11,32,18.90
2012,09,19,11,33,18.90
2012,09,19,11,34,18.90
2012,09,19,11,35,18.90
2012,09,19,11,36,19.00
2012,09,19,11,37,19.00
2012,09,19,11,38,19.00
2012,09,19,11,39,19.00
2012,09,19,11,40,19.00
2012,09,19,11,41,19.10
2012,09,19,11,42,19.10
2012,09,19,11,43,19.20
2012,09,19,11,44,19.20
2012,09,19,11,45,19.30
2012,09,19,11,46,19.30
2012,09,19,11,47,19.40
2012,09,19,11,48,19.50
2012,09,19,11,49,19.50
2012,09,19,11,50,19.60
2012,09,19,11,51,19.70
2012,09,19,11,52,19.80
2012,09,19,11,53,19.80
2012,09,19,11,54,19.90
2012,09,19,11,55,19.90
2012,09,19,11,56,19.90
2012,09,19,11,57,19.90
2012,09,19,11,58,19.90
2012,09,19,11,59,19.90
2012,09,19,12,00,19.90
2012,09,19,12,01,20.00
2012,09,19,12,02,20.10
2012,09,19,12,03,20.20
2012,09,19,12,04,20.20
2012,09,19,12,05,20.20
2012,09,19,12,06,20.30
2012,09,19,12,07,20.30
2012,09,19,12,08,20.30
2012,09,19,12,09,20.30
2012,09,19,12,10,20.40
2012,09,19,12,11,20.50
2012,09,19,12,12,20.50
2012,09,19,12,13,20.60
2012,09,19,12,14,20.70
2012,09,19,12,15,20.70
2012,09,19,12,16,20.70
2012,09,19,12,17,20.80
2012,09,19,12,18,20.80
2012,09,19,12,19,20.80
2012,09,19,12,20,20.90
2012,09,19,12,21,21.00
2012,09,19,12,22,21.10
2012,09,19,12,23,21.20
2012,09,19,12,24,21.30
2012,09,19,12,25,21.30
2012,09,19,12,26,21.40
2012,09,19,12,27,21.40
2012,09,19,12,28,21.50
2012,09,19,12,29,21.50
2012,09,19,12,30,21.50
2012,09,19,12,31,21.50
2012,09,19,12,32,21.50
2012,09,19,12,33,21.50
2012,09,19,12,34,21.50
2012,09,19,12,35,21.50
2012,09,19,12,36,21.50
2012,09,19,12,37,21.60
2012,09,19,12,38,21.60
2012,09,19,12,39,21.60
2012,09,19,12,40,21.70
2012,09,19,12,41,21.70
2012,09,19,12,42,21.80
2012,09,19,12,43,21.90
2012,09,19,12,44,21.90
2012,09,19,12,45,22.00
2012,09,19,12,46,22.00
2012,09,19,12,47,22.00
2012,09,19,12,48,22.00
2012,09,19,12,49,21.90
2012,09,19,12,50,21.90
2012,09,19,12,51,21.90
2012,09,19,12,52,21.90
2012,09,19,12,53,21.90
2012,09,19,12,54,21.90
2012,09,19,12,55,22.00
2012,09,19,12,56,22.00
2012,09,19,12,57,22.00
2012,09,19,12,58,22.10
2012,09,19,12,59,22.10
2012,09,19,13,00,22.10
2012,09,19,13,01,22.10
2012,09,19,13,02,22.10
2012,09,19,13,03,22.10
2012,09,19,13,04,22.10
2012,09,19,13,05,22.10
2012,09,19,13,06,22.00
2012,09,19,13,07,22.00
2012,09,19,13,08,22.00
2012,09,19,13,09,22.00
2012,09,19,13,10,22.00
2012,09,19,13,11,22.00
2012,09,19,13,12,22.10
2012,09,19,13,13,22.20
2012,09,19,13,14,22.20
2012,09,19,13,15,22.30
2012,09,19,13,16,22.20
2012,09,19,13,17,22.20
2012,09,19,13,18,22.20
2012,09,19,13,19,22.30
2012,09,19,13,20,22.30
2012,09,19,13,21,22.30
2012,09,19,13,22,22.30
2012,09,19,13,23,22.30
2012,09,19,13,24,22.30
2012,09,19,13,25,22.30
2012,09,19,13,26,22.30
2012,09,19,13,27,22.30
2012,09,19,13,28,22.30
2012,09,19,13,29,22.30
2012,09,19,13,30,22.30
2012,09,19,13,31,22.30
2012,09,19,13,32,22.30
2012,09,19,13,33,22.30
2012,09,19,13,34,22.40
2012,09,19,13,35,22.40
2012,09,19,13,36,22.40
2012,09,19,13,37,22.40
2012,09,19,13,38,22.50
2012,09,19,13,39,22.50
2012,09,19,13,40,22.60
2012,09,19,13,41,22.60
2012,09,19,13,42,22.60
2012,09,19,13,43,22.50
2012,09,19,13,44,22.50
2012,09,19,13,45,22.60
2012,09,19,13,46,22.60
2012,09,19,13,47,22.60
2012,09,19,13,48,22.70
2012,09,19,13,49,22.60
2012,09,19,13,50,22.60
2012,09,19,13,51,22.60
2012,09,19,13,52,22.50
2012,09,19,13,53,22.50
2012,09,19,13,54,22.50
2012,09,19,13,55,22.50
2012,09,19,13,56,22.50
2012,09,19,13,57,22.50
2012,09,19,13,58,22.50
2012,09,19,13,59,22.40
2012,09,19,14,00,22.50
2012,09,19,14,01,22.50
2012,09,19,14,02,22.60
2012,09,19,14,03,22.60
2012,09,19,14,04,22.60
2012,09,19,14,05,22.60
2012,09,19,14,06,22.60
2012,09,19,14,07,22.60
2012,09,19,14,08,22.60
2012,09,19,14,09,22.60
2012,09,19,14,10,22.60
2012,09,19,14,11,22.60
2012,09,19,14,12,22.50
2012,09,19,14,13,22.50
2012,09,19,14,14,22.50
2012,09,19,14,15,22.50
2012,09,19,14,16,22.40
2012,09,19,14,17,22.40
2012,09,19,14,18,22.40
2012,09,19,14,19,22.40
2012,09,19,14,20,22.40
2012,09,19,14,21,22.40
2012,09,19,14,22,22.40
2012,09,19,14,23,22.40
2012,09,19,14,24,22.40
2012,09,19,14,25,22.40
2012,09,19,14,26,22.40
2012,09,19,14,27,22.30
2012,09,19,14,28,22.30
2012,09,19,14,29,22.30
2012,09,19,14,30,22.30
2012,09,19,14,31,22.30
2012,09,19,14,32,22.30
2012,09,19,14,33,22.40
2012,09,19,14,34,22.40
2012,09,19,14,35,22.40
2012,09,19,14,36,22.50
2012,09,19,14,37,22.50
2012,09,19,14,38,22.50
2012,09,19,14,39,22.50
2012,09,19,14,40,22.50
2012,09,19,14,41,22.40
2012,09,19,14,42,22.40
2012,09,19,14,43,22.40
2012,09,19,14,44,22.40
2012,09,19,14,45,22.40
2012,09,19,14,46,22.40
2012,09,19,14,47,22.40
2012,09,19,14,48,22.50
2012,09,19,14,49,22.50
2012,09,19,14,50,22.60
2012,09,19,14,51,22.70
2012,09,19,14,52,22.80
2012,09,19,14,53,22.80
2012,09,19,14,54,22.80
2012,09,19,14,55,22.80
2012,09,19,14,56,22.80
2012,09,19,14,57,22.80
2012,09,19,14,58,22.70
2012,09,19,14,59,22.70
2012,09,19,15,00,22.70
2012,09,19,15,01,22.70
2012,09,19,15,02,22.70
2012,09,19,15,03,22.80
2012,09,19,15,04,22.90
2012,09,19,15,05,22.90
2012,09,19,15,06,23.00
2012,09,19,15,07,23.00
2012,09,19,15,08,22.90
2012,09,19,15,09,22.90
2012,09,19,15,10,22.80
2012,09,19,15,11,22.80
2012,09,19,15,12,22.80
2012,09,19,15,13,22.80
2012,09,19,15,14,22.90
2012,09,19,15,15,22.90
2012,09,19,15,16,22.90
2012,09,19,15,17,23.00
2012,09,19,15,18,23.00
2012,09,19,15,19,23.00
2012,09,19,15,20,23.00
2012,09,19,15,21,23.10
2012,09,19,15,22,23.10
2012,09,19,15,23,23.10
2012,09,19,15,24,23.20
2012,09,19,15,25,23.10
2012,09,19,15,26,23.10
2012,09,19,15,27,23.10
2012,09,19,15,28,23.10
2012,09,19,15,29,23.10
2012,09,19,15,30,23.10
2012,09,19,15,31,23.00
2012,09,19,15,32,23.10
2012,09,19,15,33,23.10
2012,09,19,15,34,23.10
2012,09,19,15,35,23.10
2012,09,19,15,36,23.20
2012,09,19,15,37,23.20
2012,09,19,15,38,23.20
2012,09,19,15,39,23.20
2012,09,19,15,40,23.10
2012,09,19,15,41,23.10
2012,09,19,15,42,23.10
2012,09,19,15,43,23.10
2012,09,19,15,44,23.10
2012,09,19,15,45,23.10
2012,09,19,15,46,23.10
2012,09,19,15,47,23.20
2012,09,19,15,48,23.30
2012,09,19,15,49,23.30
2012,09,19,15,50,23.30
2012,09,19,15,51,23.40
2012,09,19,15,52,23.40
2012,09,19,15,53,23.30
2012,09,19,15,54,23.40
2012,09,19,15,55,23.50
2012,09,19,15,56,23.50
2012,09,19,15,57,23.60
2012,09,19,15,58,23.60
2012,09,19,15,59,23.70
2012,09,19,16,00,23.70
2012,09,19,16,01,23.70
2012,09,19,16,02,23.70
2012,09,19,16,03,23.60
2012,09,19,16,04,23.60
2012,09,19,16,05,23.50
2012,09,19,16,06,23.50
2012,09,19,16,07,23.40
2012,09,19,16,08,23.40
2012,09,19,16,09,23.40
2012,09,19,16,10,23.50
2012,09,19,16,11,23.50
2012,09,19,16,12,23.60
2012,09,19,16,13,23.60
2012,09,19,16,14,23.60
2012,09,19,16,15,23.60
2012,09,19,16,16,23.70
2012,09,19,16,17,23.70
2012,09,19,16,18,23.70
2012,09,19,16,19,23.70
2012,09,19,16,20,23.70
2012,09,19,16,21,23.70
2012,09,19,16,22,23.70
2012,09,19,16,23,23.70
2012,09,19,16,24,23.70
2012,09,19,16,25,23.70
2012,09,19,16,26,23.80
2012,09,19,16,27,23.70
2012,09,19,16,28,23.70
2012,09,19,16,29,23.70
2012,09,19,16,30,23.70
2012,09,19,16,31,23.70
2012,09,19,16,32,23.70
2012,09,19,16,33,23.60
2012,09,19,16,34,23.60
2012,09,19,16,35,23.60
2012,09,19,16,36,23.60
2012,09,19,16,37,23.60
2012,09,19,16,38,23.60
2012,09,19,16,39,23.60
2012,09,19,16,40,23.60
2012,09,19,16,41,23.60
2012,09,19,16,42,23.60
2012,09,19,16,43,23.60
2012,09,19,16,44,23.60
2012,09,19,16,45,23.60
2012,09,19,16,46,23.60
2012,09,19,16,47,23.60
2012,09,19,16,48,23.60
2012,09,19,16,49,23.60
2012,09,19,16,50,23.60
2012,09,19,16,51,23.50
2012,09,19,16,52,23.50
2012,09,19,16,53,23.40
2012,09,19,16,54,23.40
2012,09,19,16,55,23.30
2012,09,19,16,56,23.30
2012,09,19,16,57,23.30
2012,09,19,16,58,23.30
2012,09,19,16,59,23.30
2012,09,19,17,00,23.20
2012,09,19,17,01,23.20
2012,09,19,17,02,23.20
2012,09,19,17,03,23.20
2012,09,19,17,04,23.20
2012,09,19,17,05,23.20
2012,09,19,17,06,23.20
2012,09,19,17,07,23.20
2012,09,19,17,08,23.10
2012,09,19,17,09,23.10
2012,09,19,17,10,23.10
2012,09,19,17,11,23.10
2012,09,19,17,12,23.10
2012,09,19,17,13,23.10
2012,09,19,17,14,23.10
2012,09,19,17,15,23.00
2012,09,19,17,16,23.00
2012,09,19,17,17,22.90
2012,09,19,17,18,22.90
2012,09,19,17,19,22.90
2012,09,19,17,20,22.80
2012,09,19,17,21,22.80
2012,09,19,17,22,22.80
2012,09,19,17,23,22.80
2012,09,19,17,24,22.80
2012,09,19,17,25,22.80
2012,09,19,17,26,22.80
2012,09,19,17,27,22.80
2012,09,19,17,28,22.80
2012,09,19,17,29,22.70
2012,09,19,17,30,22.70
2012,09,19,17,31,22.70
2012,09,19,17,32,22.60
2012,09,19,17,33,22.50
2012,09,19,17,34,22.50
2012,09,19,17,35,22.40